Time,TemperatureF,DewpointF,PressureIn,WindDirection,WindDirectionDegrees,WindSpeedMPH,WindSpeedGustMPH,Humidity,HourlyPrecipIn,Conditions,Clouds,dailyrainin,SoftwareType,DateUTC
2013-01-20 00:10:00,45.9,29.7,29.60,ESE,112,11.4,-999.0,53,-99.99,,,0.00,Acu-Link.com,2013-01-20 05:10:00,
2013-01-20 00:25:00,45.9,30.2,29.60,SW,225,9.4,-999.0,54,-99.99,,,0.00,Acu-Link.com,2013-01-20 05:25:00,
2013-01-20 00:40:00,45.5,31.2,29.59,SSW,202,9.4,-999.0,57,-99.99,,,0.00,Acu-Link.com,2013-01-20 05:40:00,
2013-01-20 00:56:00,45.0,31.5,29.58,South,180,14.5,-999.0,59,-99.99,,,0.00,Acu-Link.com,2013-01-20 05:56:00,
2013-01-20 01:11:00,44.2,31.6,29.58,SW,225,12.5,-999.0,61,-99.99,,,0.00,Acu-Link.com,2013-01-20 06:11:00,
2013-01-20 01:26:00,44.1,31.9,29.57,South,180,6.8,-999.0,62,-99.99,,,0.00,Acu-Link.com,2013-01-20 06:26:00,
2013-01-20 01:41:00,43.7,31.9,29.58,WSW,247,7.8,-999.0,63,-99.99,,,0.00,Acu-Link.com,2013-01-20 06:41:00,
2013-01-20 01:57:00,43.2,32.2,29.58,SSE,157,7.3,-999.0,65,-99.99,,,0.00,Acu-Link.com,2013-01-20 06:57:00,
2013-01-20 02:12:00,43.0,32.4,29.57,West,270,5.3,-999.0,66,-99.99,,,0.00,Acu-Link.com,2013-01-20 07:12:00,
2013-01-20 02:27:00,43.0,32.4,29.58,SSW,202,8.9,-999.0,66,-99.99,,,0.00,Acu-Link.com,2013-01-20 07:27:00,
2013-01-20 02:42:00,42.8,32.6,29.59,South,180,13.0,-999.0,67,-99.99,,,0.00,Acu-Link.com,2013-01-20 07:42:00,
2013-01-20 02:57:00,43.0,33.2,29.59,SSW,202,8.9,-999.0,68,-99.99,,,0.00,Acu-Link.com,2013-01-20 07:57:00,
2013-01-20 03:13:00,42.8,33.0,29.60,SSE,157,10.9,-999.0,68,-99.99,,,0.00,Acu-Link.com,2013-01-20 08:13:00,
2013-01-20 03:28:00,41.9,31.0,29.60,South,180,7.8,-999.0,65,-99.99,,,0.01,Acu-Link.com,2013-01-20 08:28:00,
2013-01-20 03:43:00,41.5,29.9,29.61,South,180,13.0,-999.0,63,-99.99,,,0.01,Acu-Link.com,2013-01-20 08:43:00,
2013-01-20 03:58:00,40.5,25.6,29.63,SSE,157,8.3,-999.0,55,-99.99,,,0.01,Acu-Link.com,2013-01-20 08:58:00,
2013-01-20 04:15:00,40.1,25.2,29.62,SE,135,16.6,-999.0,55,-99.99,,,0.01,Acu-Link.com,2013-01-20 09:15:00,
2013-01-20 04:30:00,38.7,23.9,29.64,SSW,202,15.0,-999.0,55,-99.99,,,0.01,Acu-Link.com,2013-01-20 09:30:00,
2013-01-20 04:45:00,37.8,22.7,29.66,SE,135,10.4,-999.0,54,-99.99,,,0.01,Acu-Link.com,2013-01-20 09:45:00,
2013-01-20 05:00:00,37.0,21.9,29.67,West,270,16.6,-999.0,54,-99.99,,,0.01,Acu-Link.com,2013-01-20 10:00:00,
2013-01-20 05:16:00,36.1,21.1,29.67,South,180,8.9,-999.0,54,-99.99,,,0.01,Acu-Link.com,2013-01-20 10:16:00,
2013-01-20 05:31:00,35.6,21.5,29.68,SSE,157,8.3,-999.0,56,-99.99,,,0.01,Acu-Link.com,2013-01-20 10:31:00,
2013-01-20 05:46:00,34.0,20.8,29.72,South,180,21.2,-999.0,58,-99.99,,,0.01,Acu-Link.com,2013-01-20 10:46:00,
2013-01-20 06:01:00,31.1,18.1,29.75,SSW,202,10.4,-999.0,58,-99.99,,,0.01,Acu-Link.com,2013-01-20 11:01:00,
2013-01-20 06:17:00,30.4,16.2,29.75,South,180,7.8,-999.0,55,-99.99,,,0.01,Acu-Link.com,2013-01-20 11:17:00,
2013-01-20 06:32:00,28.9,16.8,29.77,South,180,9.4,-999.0,60,-99.99,,,0.01,Acu-Link.com,2013-01-20 11:32:00,
2013-01-20 06:47:00,27.5,16.2,29.80,South,180,6.3,-999.0,62,-99.99,,,0.01,Acu-Link.com,2013-01-20 11:47:00,
2013-01-20 07:02:00,27.0,15.0,29.81,South,180,13.5,-999.0,60,-99.99,,,0.01,Acu-Link.com,2013-01-20 12:02:00,
2013-01-20 07:18:00,26.2,15.0,29.82,SSE,157,8.9,-999.0,62,-99.99,,,0.01,Acu-Link.com,2013-01-20 12:18:00,
2013-01-20 07:33:00,25.7,13.8,29.83,SSE,157,11.4,-999.0,60,-99.99,,,0.01,Acu-Link.com,2013-01-20 12:33:00,
2013-01-20 07:48:00,25.3,13.4,29.84,WSW,247,8.9,-999.0,60,-99.99,,,0.01,Acu-Link.com,2013-01-20 12:48:00,
2013-01-20 08:03:00,25.3,13.4,29.87,SW,225,12.5,-999.0,60,-99.99,,,0.01,Acu-Link.com,2013-01-20 13:03:00,
2013-01-20 08:18:00,25.3,13.4,29.86,South,180,16.1,-999.0,60,-99.99,,,0.01,Acu-Link.com,2013-01-20 13:18:00,
2013-01-20 08:34:00,25.2,13.3,29.89,South,180,8.9,-999.0,60,-99.99,,,0.01,Acu-Link.com,2013-01-20 13:34:00,
2013-01-20 08:49:00,24.6,13.1,29.89,SSE,157,5.3,-999.0,61,-99.99,,,0.01,Acu-Link.com,2013-01-20 13:49:00,
2013-01-20 09:04:00,24.4,12.9,29.91,South,180,7.8,-999.0,61,-99.99,,,0.01,Acu-Link.com,2013-01-20 14:04:00,
2013-01-20 09:19:00,24.4,11.8,29.91,South,180,7.8,-999.0,58,-99.99,,,0.01,Acu-Link.com,2013-01-20 14:19:00,
2013-01-20 09:34:00,23.4,12.7,29.93,SSE,157,6.3,-999.0,63,-99.99,,,0.01,Acu-Link.com,2013-01-20 14:34:00,
2013-01-20 09:50:00,22.5,12.5,29.95,South,180,13.0,-999.0,65,-99.99,,,0.01,Acu-Link.com,2013-01-20 14:50:00,
2013-01-20 10:05:00,22.1,11.1,29.97,SSW,202,7.8,-999.0,62,-99.99,,,0.01,Acu-Link.com,2013-01-20 15:05:00,
2013-01-20 10:20:00,21.6,11.3,29.97,SW,225,7.3,-999.0,64,-99.99,,,0.01,Acu-Link.com,2013-01-20 15:20:00,
2013-01-20 10:35:00,21.6,12.4,29.98,West,270,5.8,-999.0,67,-99.99,,,0.01,Acu-Link.com,2013-01-20 15:35:00,
2013-01-20 10:51:00,20.8,14.1,30.00,South,180,11.4,-999.0,75,-99.99,,,0.01,Acu-Link.com,2013-01-20 15:51:00,
2013-01-20 11:06:00,20.7,14.4,30.01,South,180,5.8,-999.0,76,-99.99,,,0.01,Acu-Link.com,2013-01-20 16:06:00,
2013-01-20 11:21:00,20.5,16.2,30.01,SW,225,5.3,-999.0,83,-99.99,,,0.01,Acu-Link.com,2013-01-20 16:21:00,
2013-01-20 11:36:00,20.3,17.1,30.00,SSW,202,5.3,-999.0,87,-99.99,,,0.01,Acu-Link.com,2013-01-20 16:36:00,
2013-01-20 11:51:00,19.6,16.9,30.01,South,180,5.3,-999.0,89,-99.99,,,0.01,Acu-Link.com,2013-01-20 16:51:00,
2013-01-20 12:07:00,20.7,15.2,30.00,SSE,157,2.2,-999.0,79,-99.99,,,0.01,Acu-Link.com,2013-01-20 17:07:00,
2013-01-20 12:22:00,21.7,12.8,30.01,SSE,157,6.3,-999.0,68,-99.99,,,0.01,Acu-Link.com,2013-01-20 17:22:00,
2013-01-20 12:37:00,20.7,11.8,30.02,South,180,10.4,-999.0,68,-99.99,,,0.01,Acu-Link.com,2013-01-20 17:37:00,
2013-01-20 12:52:00,21.2,11.0,30.01,SSW,202,9.4,-999.0,64,-99.99,,,0.01,Acu-Link.com,2013-01-20 17:52:00,
2013-01-20 13:07:00,22.3,12.0,30.02,South,180,6.3,-999.0,64,-99.99,,,0.01,Acu-Link.com,2013-01-20 18:07:00,
2013-01-20 13:23:00,23.5,12.1,30.02,SSE,157,4.7,-999.0,61,-99.99,,,0.01,Acu-Link.com,2013-01-20 18:23:00,
2013-01-20 13:38:00,22.5,11.1,30.00,South,180,6.3,-999.0,61,-99.99,,,0.01,Acu-Link.com,2013-01-20 18:38:00,
2013-01-20 13:53:00,23.7,11.5,30.00,South,180,8.9,-999.0,59,-99.99,,,0.01,Acu-Link.com,2013-01-20 18:53:00,
2013-01-20 14:08:00,22.6,9.7,30.00,SSE,157,6.8,-999.0,57,-99.99,,,0.01,Acu-Link.com,2013-01-20 19:08:00,
2013-01-20 14:23:00,23.7,10.7,29.99,SSW,202,8.9,-999.0,57,-99.99,,,0.01,Acu-Link.com,2013-01-20 19:23:00,
2013-01-20 14:39:00,23.0,10.8,29.99,SSE,157,4.7,-999.0,59,-99.99,,,0.01,Acu-Link.com,2013-01-20 19:39:00,
2013-01-20 14:54:00,24.1,10.3,29.99,South,180,5.8,-999.0,55,-99.99,,,0.01,Acu-Link.com,2013-01-20 19:54:00,
2013-01-20 15:09:00,23.9,10.5,29.99,South,180,10.9,-999.0,56,-99.99,,,0.01,Acu-Link.com,2013-01-20 20:09:00,
2013-01-20 15:24:00,23.0,10.8,30.00,SW,225,6.3,-999.0,59,-99.99,,,0.01,Acu-Link.com,2013-01-20 20:24:00,
2013-01-20 15:40:00,23.2,11.0,30.00,South,180,4.2,-999.0,59,-99.99,,,0.01,Acu-Link.com,2013-01-20 20:40:00,
2013-01-20 16:10:00,22.6,10.8,30.01,South,180,5.3,-999.0,60,-99.99,,,0.01,Acu-Link.com,2013-01-20 21:10:00,
2013-01-20 16:25:00,22.1,10.0,30.03,WSW,247,5.8,-999.0,59,-99.99,,,0.01,Acu-Link.com,2013-01-20 21:25:00,
2013-01-20 16:40:00,22.1,10.4,30.03,South,180,4.7,-999.0,60,-99.99,,,0.01,Acu-Link.com,2013-01-20 21:40:00,
2013-01-20 16:56:00,21.9,10.9,30.02,SSW,202,6.3,-999.0,62,-99.99,,,0.01,Acu-Link.com,2013-01-20 21:56:00,
2013-01-20 17:11:00,21.7,10.7,30.03,South,180,5.3,-999.0,62,-99.99,,,0.01,Acu-Link.com,2013-01-20 22:11:00,
2013-01-20 17:26:00,21.6,10.6,30.02,SSW,202,7.3,-999.0,62,-99.99,,,0.01,Acu-Link.com,2013-01-20 22:26:00,
2013-01-20 17:41:00,21.6,11.0,30.03,South,180,4.2,-999.0,63,-99.99,,,0.01,Acu-Link.com,2013-01-20 22:41:00,
2013-01-20 17:56:00,21.4,11.5,30.03,SW,225,3.7,-999.0,65,-99.99,,,0.01,Acu-Link.com,2013-01-20 22:56:00,
2013-01-20 18:27:00,21.2,11.3,30.05,South,180,4.7,-999.0,65,-99.99,,,0.01,Acu-Link.com,2013-01-20 23:27:00,
2013-01-20 18:42:00,21.4,11.1,30.03,SSW,202,5.8,-999.0,64,-99.99,,,0.01,Acu-Link.com,2013-01-20 23:42:00,
2013-01-20 19:13:00,21.0,11.1,30.05,SSE,157,2.2,-999.0,65,-99.99,,,0.01,Acu-Link.com,2013-01-21 00:13:00,
2013-01-20 19:28:00,21.0,11.1,30.04,South,180,3.2,-999.0,65,-99.99,,,0.01,Acu-Link.com,2013-01-21 00:28:00,
2013-01-20 19:43:00,20.8,10.9,30.03,South,180,5.3,-999.0,65,-99.99,,,0.01,Acu-Link.com,2013-01-21 00:43:00,
2013-01-20 19:58:00,20.8,11.3,30.03,SSW,202,3.2,-999.0,66,-99.99,,,0.01,Acu-Link.com,2013-01-21 00:58:00,
2013-01-20 20:13:00,20.8,11.6,30.03,SSE,157,2.2,-999.0,67,-99.99,,,0.01,Acu-Link.com,2013-01-21 01:13:00,
2013-01-20 20:29:00,20.7,10.8,30.03,SW,225,5.8,-999.0,65,-99.99,,,0.01,Acu-Link.com,2013-01-21 01:29:00,
2013-01-20 20:44:00,20.5,11.3,30.03,South,180,3.7,-999.0,67,-99.99,,,0.01,Acu-Link.com,2013-01-21 01:44:00,
2013-01-20 20:59:00,20.1,11.3,30.04,SW,225,6.3,-999.0,68,-99.99,,,0.01,Acu-Link.com,2013-01-21 01:59:00,
2013-01-20 21:14:00,19.9,11.1,30.04,SSW,202,1.7,-999.0,68,-99.99,,,0.01,Acu-Link.com,2013-01-21 02:14:00,
2013-01-20 21:29:00,19.9,11.1,30.03,SSW,202,3.7,-999.0,68,-99.99,,,0.01,Acu-Link.com,2013-01-21 02:29:00,
2013-01-20 21:45:00,19.9,12.0,30.04,South,180,1.1,-999.0,71,-99.99,,,0.01,Acu-Link.com,2013-01-21 02:45:00,
2013-01-20 22:00:00,19.8,11.0,30.03,SSE,157,2.7,-999.0,68,-99.99,,,0.01,Acu-Link.com,2013-01-21 03:00:00,
2013-01-20 22:15:00,19.4,10.6,30.04,SSE,157,7.8,-999.0,68,-99.99,,,0.01,Acu-Link.com,2013-01-21 03:15:00,
2013-01-20 22:30:00,19.0,10.2,30.03,South,180,2.7,-999.0,68,-99.99,,,0.01,Acu-Link.com,2013-01-21 03:30:00,
2013-01-20 22:46:00,18.7,10.2,30.03,SE,135,1.7,-999.0,69,-99.99,,,0.01,Acu-Link.com,2013-01-21 03:46:00,
2013-01-20 23:01:00,18.3,10.2,30.03,SSW,202,6.8,-999.0,70,-99.99,,,0.01,Acu-Link.com,2013-01-21 04:01:00,
2013-01-20 23:16:00,18.0,10.2,30.03,SW,225,2.7,-999.0,71,-99.99,,,0.01,Acu-Link.com,2013-01-21 04:16:00,
2013-01-20 23:31:00,17.8,10.3,30.01,South,180,3.2,-999.0,72,-99.99,,,0.01,Acu-Link.com,2013-01-21 04:31:00,